STARLINK-36139 (66966 NORAD) Tracking and Keplerian Element Data

This shows tracking and keplerian element data for the satellite.

Feedback or suggestion? Click here.




ElementValue
Catalog66966
NameSTARLINK-36139
Epoch Orbit303
Epoch Day354.25003472
Epoch Year2025
RAAN121.1443
Inclination43.0014
Eccentricity0.0001558
Argument of Perigee266.6196
Mean Anonmoly106.3609
Mean Motion15.81259173
Decay Rate-0.01319531
L11 66966U 25288H 25354.25003472 -.01319531 00000+0 -73942-2 0 9991
L22 66966 43.0014 121.1443 0001558 266.6196 106.3609 15.81259173 3031



Live tracking and technical data element details for STARLINK-36139 (NORAD 66966). STARLINK-36139 can be tracked NOW for your location showing map with azimuth and elevation plus other details from your city location.







IsCatalogInMostPopularTable: catalog: 66966, numindb: 10
Update: records affected: 1



GetName: 66966 STARLINK-36139

Hit Count: updated at: Sat, 07 Feb 2026 08:48:05 GMT